www.pogodaiklimat.ru

Погода и климат >> Архив погоды >> Аргентина >> San Fernando del Valle de Catamarca


ПОГОДА в San Fernando del Valle de Catamarca

  • Прогноз погоды в San Fernando del Valle de Catamarca
  • Монитор погоды в San Fernando del Valle de Catamarca
  • Климат города

АРХИВ ПОГОДЫ в San Fernando del Valle de Catamarca

Время (UTC), дата Ветер
(напр.,м/с)
 
Видим.   Явления Облачность Т
(С)
Тd
(С)
f
(%)
Тe
(С)
Тes
(С)
Комфортность P
(гПа)
Po
(гПа)
Тmin
(С)
Tmax
(С)
R
(мм)
R24
(мм)
S
(см)
15 9.07 ЮЗ 5 20 км ясно +11.1 +2.9 57 +9 +13 1033.1 977.8
18 9.07 С 6 20 км ясно +16.3 +1.1 36 +15 +18 1028.7 974.2
21 9.07 С 7 20 км ясно +14.1 +0.7 40 +12 +12 1028.1 973.0
00 10.07 С 10 20 км ясно +9.7 +1.0 55 +6 +6 1030.0 974.2 -1.7 +17.5
03 10.07 С 6 20 км ясно +8.9 +2.2 63 +5 +5 1028.4 974.0
06 10.07 С 7 20 км ясно +9.1 +2.5 63 +5 +5 1026.5 972.6
09 10.07 С 6 20 км ясно +8.1 +2.3 67 +4 +4 1024.4 970.4
12 10.07 С 9 20 км ясно +9.3 +1.6 59 +5 +5 1024.1 969.8 +7.9 +9.8
15 10.07 С 12 20 км ясно +13.6 +0.9 42 +11 +11 1022.9 969.0
18 10.07 С 12 20 км 9/0
[Ci]
+14.9 +0.1 36 +12 +12 1018.9 965.3
21 10.07 С 13 20 км 9/0
[Cs]
+13.0 +0.6 43 +10 +10 1017.3 963.4
00 11.07 С 9 20 км 5/0
[Cs]
+11.9 +2.3 52 +9 +9 1017.3 963.6 +9.3 +16.0
03 11.07 С 8 20 км ясно +9.6 +2.8 63 +6 +6 1016.9 963.4
06 11.07 С 2 20 км ясно +9.9 +0.7 53 +9 +9 1015.2 961.8
09 11.07 С 1 20 км ясно +8.5 +1.2 60 +9 +9 1015.2 961.6
12 11.07 СВ 1 20 км 6/0
[Cs]
+1.9 +0.1 88 +1 +2 1018.4 963.8 +1.2 +12.4
15 11.07 ЮЗ 4 20 км 3/0
[Cs]
+10.3 +1.2 53 +8 +13 1018.7 964.8
18 11.07 Ю 3 20 км 3/0
[Cs]
+16.1 +2.0 39 +16 +22 1016.2 963.0
21 11.07 ЮЗ 2 20 км ясно +15.9 +2.3 40 +16 +16 1015.7 962.2
00 12.07 С 3 15 км мгла ясно +10.3 +2.9 60 +9 +9 1019.3 964.6 +1.6 +17.5
03 12.07 С 4 20 км ясно +7.5 +2.7 72 +4 +4 1020.5 966.2
06 12.07 С 3 15 км пыль ясно +4.1 +1.9 86 0 0 1019.9 965.8
09 12.07 С 5 20 км ясно +4.5 +1.8 83 -0 -0 1017.3 963.4
12 12.07 штиль 0 20 км ясно +2.3 +1.0 91 +1 +2 1018.9 964.2 +1.9 +10.3
15 12.07 С 2 20 км ясно +16.3 +1.7 37 +17 +25 1016.5 963.0
18 12.07 ЮЗ 5 20 км ясно +19.7 +1.7 30 +20 +23 1013.3 960.0
21 12.07 штиль 0 20 км 1/0
[Ci]
+21.1 +3.5 31 +21 +22 комфорт 1011.6 958.6
00 13.07 С 2 20 км ясно +6.8 +3.6 80 +5 +5 1015.7 960.9 +2.3 +21.5
03 13.07 С 3 20 км ясно +3.9 +0.6 79 +1 +1 1016.1 962.2
06 13.07 С 2 20 км ясно +5.1 +2.0 80 +3 +3 1015.8 962.5
09 13.07 С 4 20 км ясно +5.1 +0.3 71 +1 +1 1013.9 960.8
12 13.07 С 3 20 км ясно +5.9 +0.2 67 +3 +3 1016.5 962.0 +3.7 +6.8
15 13.07 С 1 20 км ясно +16.1 +2.0 39 +18 +27 1015.4 961.7
18 13.07 ЮЗ 2 20 км ясно +22.9 +1.6 25 +22 +29 комфорт 1010.1 957.4
21 13.07 Ю 2 20 км ясно +22.6 +1.1 24 +22 +22 комфорт 1008.5 956.5
00 14.07 С 3 20 км ясно +11.7 +2.3 52 +10 +10 1010.4 956.6 +5.9 +24.1
03 14.07 С 3 20 км ясно +6.5 +0.9 67 +4 +4 1011.1 957.8
06 14.07 С 3 20 км ясно +6.5 +2.5 76 +4 +4 1008.5 956.0
09 14.07 С 2 20 км ясно +4.1 0.0 75 +2 +2 1007.7 955.0
12 14.07 С 4 20 км ясно +6.1 +2.6 78 +2 +3 1008.8 955.2 +2.9 +14.8
15 14.07 ЮЗ 2 20 км ясно +18.7 +4.3 39 +20 +28 1007.4 954.5
18 14.07 Ю 2 20 км ясно +24.5 +3.9 26 +24 +31 комфорт 1002.5 950.4
21 14.07 Ю 2 20 км ясно +24.9 +2.7 24 +24 +24 комфорт 1001.6 949.4
00 15.07 З 2 20 км ясно +12.4 +2.7 52 +12 +12 1005.2 951.8 +6.1 +26.4
03 15.07 С 3 20 км ясно +8.6 +2.7 66 +6 +6 1007.2 954.5
06 15.07 С 4 20 км ясно +8.6 +4.2 74 +6 +6 1007.2 955.0
09 15.07 С 3 20 км ясно +7.4 +3.3 75 +5 +5 1008.5 955.8
12 15.07 С 2 20 км ясно +6.7 +3.8 82 +4 +5 1012.8 959.0 +5.4 +12.5
15 15.07 С 1 20 км ясно +20.7 +5.2 36 +23 +32 комфорт 1013.6 960.8
18 15.07 З 4 20 км ясно +22.5 +4.7 31 +23 +28 комфорт 1011.4 958.9
21 15.07 Ю 2 20 км ясно +22.3 +6.1 35 +23 +23 комфорт 1011.4 958.6
00 16.07 ЮЗ 2 20 км ясно +14.3 +5.5 55 +14 +14 1015.7 962.0 +6.4 +23.7
06 16.07 Ю 6 20 км 8/8 1500 м
[Sc]
+13.5 -0.8 37 +12 +12 1017.0 964.6
09 16.07 С 2 20 км ясно +7.3 -1.1 55 +6 +6 1017.8 964.8

 

Местоположение метеостанции San Fernando del Valle de Catamarca (Аргентина): широта -28.60 долгота -65.76 высота над уровнем моря 454 м.

В архиве по умолчанию представлена погода в San Fernando del Valle de Catamarca за последнюю неделю. Архивные данные за месяц целиком и за предыдущие месяцы, начиная с января 2011 года, Вы можете получить, выбрав интересующий диапазон дат из раскрывающегося списка и нажав кнопку "Ввод!".


*Определитесь, кто Вы:
робот инопланетянин человек

Внимание! Время в таблицах - всемирное. Для получения местного времени необходимо прибавить поправку, которая в San Fernando del Valle de Catamarca равна -3 ч.

Смотрите также архив погоды в соседних городах и на ближайших метеорологических станциях:

Погода в La Rioja (Аргентина) (134 км)
Погода в Santiago del Estero (Аргентина) (171 км)
Погода в Chamical (Аргентина) (202 км)
Погода в San Miguel de Tucuman (Аргентина) (206 км)
Погода в Villa de Maria del Rio Seco (Аргентина) (248 км)
Погода в Cordoba (Аргентина) (336 км)
Погода в Villa Dolores (Аргентина) (377 км)
Погода в Pilar (Аргентина) (385 км)
Погода в Ceres (Аргентина) (396 км)
Погода в San Juan (Аргентина) (403 км)

Пояснения к столбцам:

Ветер - указаны скорость ветра в м/с - средняя за 10 мин, порывы в срок и между сроками (в фигурных скобках) и направление, откуда дует ветер: С - северный, СВ - северо-восточный, В - восточный, ЮВ - юго-восточный, Ю - южный, ЮЗ - юго-западный, З - западный, СЗ - северо-западный.
Видимость - горизонтальная дальность видимости в метрах или километрах. При видимости от 1 до 10 км при отсутствии осадков обычно наблюдается дымка, при ухудшении видимости до 1 км и менее - туман. В сухую погоду видимость может ухудшаться дымом, пылью или мглою.
Явления - указаны атмосферные явления, наблюдавшиеся в срок или в последний час перед сроком; фигурными скобками обозначены явления, наблюдавшиеся между сроками (за 1-3 часа до срока); квадратными скобками обозначены град или гололедные отложения с указанием их диаметра в мм.
Облачность - указаны через наклонную черту общая и нижняя облачность в баллах и высота нижней границы облаков в метрах; квадратными скобками обозначены формы облаков: Ci - перистые, Cs - перисто-слоистые, Cc - перисто-кучевые, Ac - высококучевые, As - высокослоистые, Sc - слоисто-кучевые, Ns - слоисто-дождевые, Cu - кучевые, Cb - кучево-дождевые. Подробнее классификацию облаков см. в Атласе облаков (PDF).
T - Температура воздуха - температура, измеренная на высоте 2 м над землей.
Td - Температура точки росы - температура, при понижении до которой содержащийся в воздухе водяной пар достигнет насыщения.
f - Относительная влажность воздуха - влажноcть воздуха, измеренная на высоте 2 м над землей.
Te - Эффективная температура - температура, которую ощущает одетый по сезону человек в тени. Характеристика душности погоды. При расчете учитывается влияние влажности воздуха и скорости ветра на теплоощущения человека.
Tes - Эффективная температура на солнце - температура, которую ощущает человек, с поправкой на солнечный нагрев. Характеристика знойности погоды. Зависит от высоты солнца над горизонтом, облачности и скорости ветра. Ночью, в пасмурную погоду, а также при ветре 12 м/с и более поправка равна нулю.
P - Атмосферное давление - приведенное к уровню моря атмосферное давление.
Po - Атмосферное давление - измеренное на уровне метеостанции атмосферное давление.
Tmin - Минимальная температура - минимум температуры воздуха на высоте 2 м над землей.
Tmax - Максимальная температура - максимум температуры воздуха на высоте 2 м над землей.
R - Количество осадков - Количество выпавших осадков за период времени, мм. При наведении курсора мыши на число - период времени, за который выпало указанное количество осадков.
R24 - Количество осадков - Количество выпавших осадков за 24 часа, мм.
S - Снежный покров - Высота снежного покрова, см. При наведении курсора мыши на число - состояние снежного покрова и степень покрытия местности в баллах.